全部
Bunyip Airport YBUP 天氣
There is no TAF data available at YBUP or any nearby airports.
There is no METAR data available at YBUP. Showing METAR data for YCEM (27 mi W).
YCEM近期METAR歷史資料(YBUP無資料)
| Date | Time (AEST) | Flight Rules | Wind Dir. | Speed | Type | Height AGL (ft) | Visibility | Temp (°C) | Temp (°F) | Dew Point (°C) | Dew Point (°F) | Rel. Humid. | Pressure | Density Altitude | Remarks |
|---|---|---|---|---|---|---|---|---|---|---|---|---|---|---|---|
| 05-五月 | 13:00 | n/a | 250° | 9 kt | Missing | 15° | 59° | 8° | 46° | 63% | 1020 mb | 132 ft | |||
| 05-五月 | 12:00 | n/a | 270° | 8 kt | Missing | 15° | 59° | 8° | 46° | 63% | 1020 mb | 132 ft | |||
| 05-五月 | 11:00 | n/a | 270° | 9 kt | Missing | 14° | 57° | 8° | 46° | 67% | 1020 mb | 12 ft | |||
| 05-五月 | 10:00 | n/a | 260° | 4 kt | Missing | 14° | 57° | 10° | 50° | 77% | 1020 mb | 12 ft | |||
| 05-五月 | 09:00 | n/a | 340° | 4 kt | Missing | 13° | 55° | 11° | 51° | 88% | 1020 mb | -108 ft | |||
| 05-五月 | 08:00 | n/a | 330° | 5 kt | Missing | 13° | 55° | 11° | 51° | 88% | 1019 mb | -78 ft | |||
| 05-五月 | 07:00 | n/a | 10° | 1 kt | Missing | 12° | 53° | 11° | 51° | 94% | 1018 mb | -169 ft | |||
| 05-五月 | 06:00 | n/a | 290° | 8 kt | Missing | 12° | 53° | 10° | 50° | 88% | 1017 mb | -139 ft | |||
| 05-五月 | 05:00 | n/a | 310° | 5 kt | Missing | 13° | 55° | 9° | 48° | 77% | 1016 mb | 11 ft | |||
| 05-五月 | 04:00 | n/a | 310° | 7 kt | Missing | 14° | 57° | 9° | 48° | 72% | 1015 mb | 160 ft | |||
| 05-五月 | 03:00 | n/a | 320° | 6 kt | Missing | 14° | 57° | 9° | 48° | 72% | 1015 mb | 160 ft | |||
| 05-五月 | 02:00 | n/a | 350° | 5 kt | Missing | 14° | 57° | 10° | 50° | 77% | 1015 mb | 160 ft | |||
| 05-五月 | 01:00 | n/a | 320° | 6 kt | Missing | 14° | 57° | 10° | 50° | 77% | 1014 mb | 190 ft | |||
| 05-五月 | 00:00 | n/a | 360° | 4 kt | Missing | 14° | 57° | 10° | 50° | 77% | 1014 mb | 190 ft | |||
| 04-五月 | 23:00 | n/a | 10° | 4 kt | Missing | 14° | 57° | 11° | 51° | 82% | 1014 mb | 190 ft | |||
| 04-五月 | 22:00 | n/a | 350° | 7 kt | Missing | 14° | 57° | 11° | 51° | 82% | 1013 mb | 219 ft | |||
| 04-五月 | 21:00 | n/a | 10° | 7 kt | Missing | 14° | 57° | 11° | 51° | 82% | 1013 mb | 219 ft | |||
| 04-五月 | 20:00 | n/a | 10° | 7 kt | Missing | 13° | 55° | 12° | 53° | 94% | 1012 mb | 129 ft | |||
| 04-五月 | 19:00 | n/a | 360° | 9 kt | Missing | 14° | 57° | 11° | 51° | 82% | 1012 mb | 249 ft | |||
| 04-五月 | 18:00 | n/a | 10° | 9 kt | Missing | 14° | 57° | 10° | 50° | 77% | 1011 mb | 278 ft | |||
| 04-五月 | 17:00 | n/a | 10° | 10 kt | Missing | 16° | 60° | 9° | 48° | 63% | 1010 mb | 548 ft | Wind gusting to 20 KT | ||
| 04-五月 | 16:00 | n/a | 10° | 12 kt | Missing | 17° | 62° | 8° | 46° | 55% | 1010 mb | 668 ft | Wind gusting to 22 KT | ||
| 04-五月 | 15:00 | n/a | 10° | 11 kt | Missing | 17° | 62° | 8° | 46° | 55% | 1010 mb | 668 ft | Wind gusting to 24 KT | ||
| 04-五月 | 14:00 | n/a | 350° | 12 kt | Missing | 17° | 62° | 8° | 46° | 55% | 1010 mb | 668 ft |
登入
| 您的瀏覽器不支援. 升級您的瀏覽器 |
